This is the latest recevied weather packets stored in our database for station/object K9RJT. If no packets are shown the sender has not sent any weather packets the latest 10 day(s).
| Time | Temp. | Humidity | Pressure | Rain* | Wind** | Luminosity | Snow |
|---|---|---|---|---|---|---|---|
| 1777732244 | 10° C | 68% | 1011 hPa | 0 mm | - | 85 W/m² | - |
| 1777731940 | 9.44° C | 69% | 1010.9 hPa | 0 mm | - | 82 W/m² | - |
| 1777731637 | 9.44° C | 70% | 1010.9 hPa | 0 mm | - | 80 W/m² | - |
| 1777731335 | 9.44° C | 71% | 1010.8 hPa | 0 mm | - | 76 W/m² | - |
| 1777731032 | 8.89° C | 71% | 1011.1 hPa | 0 mm | - | 72 W/m² | - |
| 1777730731 | 8.89° C | 72% | 1011.1 hPa | 0 mm | - | 67 W/m² | - |
| 1777730427 | 8.89° C | 73% | 1010.9 hPa | 0 mm | - | 58 W/m² | - |
| 1777730122 | 8.89° C | 73% | 1010.9 hPa | 0 mm | - | 47 W/m² | - |
| 1777729819 | 8.33° C | 73% | 1010.8 hPa | 0 mm | - | 37 W/m² | - |
| 1777729516 | 8.33° C | 75% | 1011 hPa | 0 mm | - | 30 W/m² | - |
| 1777729213 | 8.33° C | 77% | 1010.6 hPa | 0 mm | - | 24 W/m² | - |
| 1777728909 | 8.33° C | 76% | 1010.6 hPa | 0 mm | - | 18 W/m² | - |
| 1777728606 | 8.33° C | 76% | 1010.6 hPa | 0 mm | - | 15 W/m² | - |
| 1777728303 | 8.33° C | 75% | 1010.8 hPa | 0 mm | - | 14 W/m² | - |
| 1777728001 | 8.33° C | 76% | 1010.6 hPa | 0 mm | - | 11 W/m² | - |
| 1777727698 | 8.33° C | 74% | 1010.8 hPa | 0 mm | - | 9 W/m² | - |
| 1777727394 | 8.33° C | 74% | 1010.5 hPa | 0 mm | - | 6 W/m² | - |
| 1777727092 | 8.33° C | 73% | 1010.3 hPa | 0 mm | - | 4 W/m² | - |
| 1777726789 | 8.33° C | 73% | 1010.8 hPa | 0 mm | - | 3 W/m² | - |
| 1777726486 | 8.89° C | 73% | 1010.5 hPa | 0 mm | - | 2 W/m² | - |
| 1777726183 | 8.89° C | 72% | 1010.4 hPa | 0 mm | - | 1 W/m² | - |
| 1777725879 | 8.89° C | 72% | 1010.6 hPa | 0 mm | - | 1 W/m² | - |
| 1777725577 | 8.89° C | 71% | 1010.5 hPa | 0 mm | - | 0 W/m² | - |
| 1777725274 | 8.89° C | 72% | 1010.4 hPa | 0 mm | - | 0 W/m² | - |
| 1777724971 | 8.89° C | 72% | 1010.5 hPa | 0 mm | - | 0 W/m² | - |
* Rain latest hour (hover to see other rain measurements)
** Current wind speed in m/s (hover to see current wind gust speed)